This is the latest recevied weather packets stored in our database for station/object KC5CAM-13. If no packets are shown the sender has not sent any weather packets the latest 1 day(s).
| Time | Temp. | Humidity | Pressure | Rain* | Wind** | Luminosity | Snow |
|---|---|---|---|---|---|---|---|
| 1777976462 | 21.67° C | 86% | 1003.8 hPa | 0 mm | 1.79 m/s, 193° | 0 W/m² | - |
| 1777976161 | 21.67° C | 86% | 1003.9 hPa | 0 mm | 1.34 m/s, 128° | 0 W/m² | - |
| 1777975857 | 21.67° C | 86% | 1003.9 hPa | 0 mm | 1.34 m/s, 208° | 0 W/m² | - |
| 1777975553 | 21.67° C | 85% | 1004.1 hPa | 0 mm | 1.79 m/s, 170° | 0 W/m² | - |
| 1777975250 | 21.67° C | 85% | 1003.8 hPa | 0 mm | 4.47 m/s, 168° | 0 W/m² | - |
| 1777974947 | 21.67° C | 85% | 1003.9 hPa | 0 mm | 1.79 m/s, 205° | 0 W/m² | - |
| 1777974643 | 21.67° C | 85% | 1003.8 hPa | 0 mm | 3.13 m/s, 217° | 0 W/m² | - |
| 1777974339 | 22.22° C | 84% | 1003.8 hPa | 0 mm | 2.68 m/s, 124° | 0 W/m² | - |
| 1777974036 | 22.22° C | 84% | 1003.8 hPa | 0 mm | 2.24 m/s, 111° | 0 W/m² | - |
| 1777973733 | 22.22° C | 84% | 1003.8 hPa | 0 mm | 2.24 m/s, 143° | 0 W/m² | - |
| 1777973430 | 22.22° C | 84% | 1003.8 hPa | 0 mm | 3.13 m/s, 192° | 0 W/m² | - |
| 1777973127 | 22.22° C | 84% | 1004 hPa | 0 mm | 4.02 m/s, 180° | 0 W/m² | - |
| 1777972826 | 22.22° C | 84% | 1004 hPa | 0 mm | 2.68 m/s, 165° | 0 W/m² | - |
| 1777972522 | 22.22° C | 83% | 1004.2 hPa | 0 mm | 2.68 m/s, 168° | 0 W/m² | - |
| 1777972220 | 22.22° C | 83% | 1004.1 hPa | 0 mm | 2.24 m/s, 193° | 0 W/m² | - |
| 1777971918 | 22.22° C | 83% | 1004.3 hPa | 0 mm | 3.13 m/s, 193° | 0 W/m² | - |
| 1777971616 | 22.22° C | 83% | 1004.5 hPa | 0 mm | 2.24 m/s, 157° | 0 W/m² | - |
| 1777971313 | 22.22° C | 83% | 1004.3 hPa | 0 mm | 3.13 m/s, 262° | 0 W/m² | - |
| 1777971011 | 22.22° C | 82% | 1004.2 hPa | 0 mm | 3.13 m/s, 189° | 0 W/m² | - |
| 1777970709 | 22.78° C | 82% | 1004.1 hPa | 0 mm | 2.24 m/s, 160° | 0 W/m² | - |
| 1777970407 | 22.78° C | 81% | 1004.3 hPa | 0 mm | 3.13 m/s, 132° | 0 W/m² | - |
| 1777970104 | 22.78° C | 81% | 1004.3 hPa | 0 mm | 3.58 m/s, 182° | 0 W/m² | - |
| 1777969800 | 22.78° C | 81% | 1004.2 hPa | 0 mm | 2.24 m/s, 129° | 0 W/m² | - |
| 1777969496 | 22.78° C | 80% | 1004.1 hPa | 0 mm | 2.24 m/s, 168° | 0 W/m² | - |
| 1777969193 | 22.78° C | 80% | 1004.3 hPa | 0 mm | 2.68 m/s, 167° | 0 W/m² | - |
* Rain latest hour (hover to see other rain measurements)
** Current wind speed in m/s (hover to see current wind gust speed)